This is the latest recevied weather packets stored in our database for station/object KC2GYU. If no packets are shown the sender has not sent any weather packets the latest 10 day(s).
| Time | Temp. | Humidity | Pressure | Rain* | Wind** | Luminosity | Snow |
|---|---|---|---|---|---|---|---|
| 1778248165 | 16.11° C | 50% | 1015.7 hPa | 0 mm | - | 499 W/m² | - |
| 1778247861 | 16.11° C | 52% | 1015.7 hPa | 0 mm | - | 488 W/m² | - |
| 1778247558 | 16.11° C | 51% | 1015.9 hPa | 0 mm | - | 473 W/m² | - |
| 1778247256 | 16.11° C | 51% | 1015.7 hPa | 0 mm | - | 462 W/m² | - |
| 1778246952 | 15.56° C | 51% | 1015.5 hPa | 0 mm | - | 451 W/m² | - |
| 1778246651 | 15.56° C | 50% | 1015.7 hPa | 0 mm | - | 433 W/m² | - |
| 1778246347 | 15.56° C | 51% | 1015.7 hPa | 0 mm | - | 422 W/m² | - |
| 1778246042 | 15.56° C | 55% | 1015.8 hPa | 0 mm | - | 413 W/m² | - |
| 1778245739 | 15° C | 55% | 1015.7 hPa | 0 mm | - | 379 W/m² | - |
| 1778245436 | 15° C | 60% | 1015.8 hPa | 0 mm | - | 369 W/m² | - |
| 1778245132 | 15° C | 58% | 1015.6 hPa | 0 mm | - | 369 W/m² | - |
| 1778244828 | 15° C | 63% | 1015.8 hPa | 0 mm | - | 353 W/m² | - |
| 1778244526 | 13.89° C | 64% | 1015.6 hPa | 0 mm | - | 310 W/m² | - |
| 1778244223 | 13.89° C | 65% | 1015.5 hPa | 0 mm | - | 328 W/m² | - |
| 1778243922 | 13.89° C | 67% | 1015.6 hPa | 0 mm | - | 318 W/m² | - |
| 1778243620 | 13.33° C | 68% | 1015.6 hPa | 0 mm | - | 299 W/m² | - |
| 1778243316 | 13.89° C | 70% | 1015.5 hPa | 0 mm | - | 283 W/m² | - |
| 1778243013 | 13.33° C | 68% | 1015.7 hPa | 0 mm | - | 268 W/m² | - |
| 1778242710 | 13.89° C | 70% | 1015.4 hPa | 0 mm | - | 254 W/m² | - |
| 1778242408 | 12.78° C | 72% | 1015.4 hPa | 0 mm | - | 239 W/m² | - |
| 1778242106 | 12.78° C | 72% | 1015.1 hPa | 0 mm | - | 219 W/m² | - |
| 1778241803 | 12.78° C | 71% | 1015.2 hPa | 0 mm | - | 202 W/m² | - |
| 1778241501 | 12.78° C | 73% | 1015.2 hPa | 0 mm | - | 186 W/m² | - |
| 1778241198 | 12.22° C | 74% | 1015.4 hPa | 0 mm | - | 170 W/m² | - |
| 1778240894 | 11.67° C | 75% | 1015.2 hPa | 0 mm | - | 154 W/m² | - |
* Rain latest hour (hover to see other rain measurements)
** Current wind speed in m/s (hover to see current wind gust speed)